CES147 ZUCK-ZSHC

Flight info

Callsign CES147
Flight time 1h 46m
Altitude 371
Route GUTVI B213 WHA R343 UPLEL W95 SAPIN A470 IGRAT
Aircraft A343/H-SDE2E3GHIJ3J4J5LM1ORWXY/LB1D1

Departure

Time 2026-04-27 11:49
Airport Chongqing Jiangbei International Airport (ZUCK)

Arrival

Time 2026-04-27 13:36
Airport Hangzhou Xiaoshan International Airport (ZSHC)
Time Latitude Longitude Altitude Speed Heading
2026-04-27 10:50 29.72927 106.65967 1341 ft 0 kts 244°
2026-04-27 11:30 29.72928 106.65971 1314 ft 3 kts 244°
2026-04-27 11:30 29.72941 106.65999 1346 ft 4 kts 242°
2026-04-27 11:30 29.72954 106.66026 1344 ft 4 kts 239°
2026-04-27 11:31 29.72968 106.66052 1345 ft 4 kts 236°
2026-04-27 11:31 29.72984 106.66078 1344 ft 4 kts 232°
2026-04-27 11:31 29.73001 106.66101 1346 ft 4 kts 221°
2026-04-27 11:31 29.73022 106.66117 1343 ft 4 kts 181°
2026-04-27 11:32 29.73031 106.66116 1340 ft 4 kts 154°
2026-04-27 11:36 29.73030 106.66117 1340 ft 0 kts 154°
2026-04-27 11:36 29.73026 106.66119 1342 ft 1 kts 154°
2026-04-27 11:36 29.73020 106.66122 1345 ft 2 kts 155°
2026-04-27 11:36 29.73005 106.66130 1344 ft 3 kts 156°
2026-04-27 11:37 29.72981 106.66146 1337 ft 5 kts 148°
2026-04-27 11:37 29.72951 106.66169 1340 ft 5 kts 142°
2026-04-27 11:37 29.72922 106.66200 1336 ft 6 kts 136°
2026-04-27 11:37 29.72886 106.66240 1335 ft 8 kts 136°
2026-04-27 11:38 29.72857 106.66293 1334 ft 8 kts 113°
2026-04-27 11:38 29.72835 106.66359 1333 ft 9 kts 108°
2026-04-27 11:38 29.72839 106.66425 1333 ft 8 kts 56°
2026-04-27 11:38 29.72861 106.66436 1333 ft 3 kts 14°
2026-04-27 11:39 29.72888 106.66445 1332 ft 5 kts 17°
2026-04-27 11:39 29.72933 106.66461 1332 ft 8 kts 17°
2026-04-27 11:39 29.72995 106.66482 1331 ft 11 kts 17°
2026-04-27 11:39 29.73073 106.66508 1331 ft 13 kts 17°
2026-04-27 11:40 29.73163 106.66539 1330 ft 14 kts 17°
2026-04-27 11:40 29.73266 106.66575 1329 ft 16 kts 17°
2026-04-27 11:40 29.73379 106.66610 1327 ft 17 kts 17°
2026-04-27 11:40 29.73482 106.66646 1326 ft 15 kts 17°
2026-04-27 11:41 29.73578 106.66679 1326 ft 14 kts 17°
2026-04-27 11:41 29.73680 106.66713 1325 ft 16 kts 16°
2026-04-27 11:41 29.73788 106.66750 1324 ft 16 kts 16°
2026-04-27 11:41 29.73901 106.66789 1323 ft 18 kts 17°
2026-04-27 11:42 29.74021 106.66831 1322 ft 19 kts 17°
2026-04-27 11:42 29.74138 106.66871 1322 ft 17 kts 16°
2026-04-27 11:42 29.74251 106.66912 1321 ft 18 kts 18°
2026-04-27 11:42 29.74370 106.66955 1320 ft 18 kts 21°
2026-04-27 11:43 29.74491 106.66996 1319 ft 19 kts 16°
2026-04-27 11:43 29.74613 106.67041 1318 ft 18 kts 18°
2026-04-27 11:43 29.74729 106.67080 1317 ft 9 kts 22°
2026-04-27 11:43 29.74738 106.67088 1317 ft 2 kts 38°
2026-04-27 11:44 29.74745 106.67106 1316 ft 3 kts 76°
2026-04-27 11:44 29.74741 106.67118 1316 ft 2 kts 109°
2026-04-27 11:44 29.74735 106.67140 1316 ft 0 kts 109°
2026-04-27 11:46 29.74733 106.67145 1316 ft 2 kts 109°
2026-04-27 11:46 29.74724 106.67175 1316 ft 6 kts 109°
2026-04-27 11:46 29.74710 106.67224 1315 ft 7 kts 109°
2026-04-27 11:47 29.74686 106.67263 1316 ft 5 kts 154°
2026-04-27 11:47 29.74661 106.67259 1316 ft 0 kts 197°
2026-04-27 11:48 29.74660 106.67259 1316 ft 1 kts 197°
2026-04-27 11:48 29.74529 106.67212 1316 ft 49 kts 197°
2026-04-27 11:49 29.74012 106.67035 1322 ft 104 kts 196°
2026-04-27 11:49 29.73168 106.66742 1329 ft 147 kts 197°
2026-04-27 11:49 29.72095 106.66342 1548 ft 170 kts 198°
2026-04-27 11:49 29.70920 106.66067 2073 ft 174 kts 186°
2026-04-27 11:50 29.69693 106.65950 2664 ft 184 kts 182°
2026-04-27 11:50 29.68342 106.65888 3093 ft 202 kts 180°
2026-04-27 11:50 29.66923 106.65862 3769 ft 205 kts 180°
2026-04-27 11:50 29.65436 106.65831 4240 ft 228 kts 180°
2026-04-27 11:51 29.63745 106.65785 4669 ft 254 kts 181°
2026-04-27 11:51 29.61936 106.65727 5430 ft 264 kts 181°
2026-04-27 11:51 29.58260 106.66187 7170 ft 276 kts 155°
2026-04-27 11:52 29.56742 106.67539 8021 ft 282 kts 129°
2026-04-27 11:52 29.55864 106.69557 8893 ft 287 kts 106°
2026-04-27 11:52 29.55399 106.71811 9751 ft 292 kts 102°
2026-04-27 11:52 29.54980 106.74125 10426 ft 301 kts 102°
2026-04-27 11:53 29.54531 106.76557 10756 ft 322 kts 102°
2026-04-27 11:53 29.54040 106.79148 11060 ft 342 kts 103°
2026-04-27 11:53 29.53517 106.81868 11530 ft 354 kts 103°
2026-04-27 11:53 29.52977 106.84659 12160 ft 361 kts 103°
2026-04-27 11:54 29.52428 106.87491 12796 ft 366 kts 103°
2026-04-27 11:54 29.51927 106.90376 13486 ft 372 kts 98°
2026-04-27 11:54 29.51839 106.93362 14127 ft 377 kts 85°
2026-04-27 11:54 29.52351 106.96332 14730 ft 382 kts 73°
2026-04-27 11:55 29.53190 106.99243 15349 ft 387 kts 71°
2026-04-27 11:55 29.54084 107.02181 15991 ft 392 kts 71°
2026-04-27 11:55 29.54984 107.05154 16630 ft 397 kts 71°
2026-04-27 11:55 29.55890 107.08169 17229 ft 402 kts 71°
2026-04-27 11:56 29.56804 107.11229 17849 ft 407 kts 71°
2026-04-27 11:56 29.57725 107.14324 18435 ft 411 kts 71°
2026-04-27 11:56 29.58654 107.17451 18968 ft 416 kts 71°
2026-04-27 11:56 29.59583 107.20583 19500 ft 420 kts 71°
2026-04-27 11:57 29.60530 107.23777 20023 ft 425 kts 71°
2026-04-27 11:57 29.61623 107.26943 20521 ft 429 kts 64°
2026-04-27 11:57 29.63121 107.29924 21045 ft 433 kts 57°
2026-04-27 11:57 29.64789 107.32828 21548 ft 437 kts 56°
2026-04-27 11:58 29.66487 107.35746 22054 ft 441 kts 56°
2026-04-27 11:58 29.68200 107.38698 22535 ft 445 kts 56°
2026-04-27 11:58 29.69970 107.41641 23031 ft 448 kts 51°
2026-04-27 11:58 29.71908 107.44470 23507 ft 453 kts 50°
2026-04-27 11:59 29.73902 107.47288 23910 ft 456 kts 50°
2026-04-27 11:59 29.75938 107.50110 24342 ft 459 kts 49°
2026-04-27 11:59 29.77993 107.52932 24770 ft 462 kts 49°
2026-04-27 11:59 29.80071 107.55774 25199 ft 464 kts 49°
2026-04-27 12:00 29.82159 107.58632 25595 ft 467 kts 49°
2026-04-27 12:00 29.84259 107.61504 26009 ft 470 kts 49°
2026-04-27 12:00 29.86340 107.64362 26399 ft 473 kts 49°
2026-04-27 12:00 29.88351 107.67380 26768 ft 476 kts 56°
2026-04-27 12:01 29.89954 107.70721 27158 ft 479 kts 66°
2026-04-27 12:01 29.91173 107.74311 27528 ft 482 kts 71°
2026-04-27 12:01 29.92215 107.77994 27877 ft 485 kts 73°
2026-04-27 12:01 29.93167 107.81744 28231 ft 488 kts 74°
2026-04-27 12:02 29.94082 107.85516 28592 ft 490 kts 75°
2026-04-27 12:02 29.94999 107.89319 28944 ft 493 kts 74°
2026-04-27 12:02 29.95930 107.93136 29272 ft 495 kts 74°
2026-04-27 12:02 29.96876 107.96964 29620 ft 498 kts 74°
2026-04-27 12:03 29.97837 108.00807 29946 ft 500 kts 74°
2026-04-27 12:03 29.98797 108.04623 30218 ft 503 kts 73°
2026-04-27 12:03 29.99777 108.08513 30446 ft 506 kts 73°
2026-04-27 12:03 30.00762 108.12422 30689 ft 508 kts 73°
2026-04-27 12:04 30.01750 108.16351 30961 ft 510 kts 73°
2026-04-27 12:04 30.02737 108.20280 31198 ft 513 kts 73°
2026-04-27 12:04 30.03733 108.24254 31476 ft 514 kts 73°
2026-04-27 12:04 30.04726 108.28225 31833 ft 513 kts 73°
2026-04-27 12:05 30.05713 108.32176 32194 ft 513 kts 73°
2026-04-27 12:05 30.06702 108.36147 32504 ft 513 kts 73°
2026-04-27 12:05 30.07351 108.38763 32707 ft 513 kts 73°
2026-04-27 12:05 30.08333 108.42713 33055 ft 513 kts 73°
2026-04-27 12:06 30.09650 108.48008 33526 ft 511 kts 73°
2026-04-27 12:06 30.10300 108.50623 33739 ft 511 kts 73°
2026-04-27 12:06 30.11280 108.54571 34011 ft 511 kts 73°
2026-04-27 12:06 30.12268 108.58510 34267 ft 511 kts 71°
2026-04-27 12:07 30.13357 108.62424 34500 ft 512 kts 70°
2026-04-27 12:07 30.14516 108.66324 34708 ft 513 kts 69°
2026-04-27 12:07 30.15694 108.70215 34935 ft 514 kts 69°
2026-04-27 12:07 30.16870 108.74108 35158 ft 514 kts 69°
2026-04-27 12:08 30.18036 108.78010 35412 ft 514 kts 69°
2026-04-27 12:08 30.19187 108.81919 35621 ft 514 kts 69°
2026-04-27 12:08 30.20328 108.85833 35829 ft 514 kts 69°
2026-04-27 12:08 30.21466 108.89758 36067 ft 514 kts 69°
2026-04-27 12:09 30.22598 108.93674 36290 ft 515 kts 69°
2026-04-27 12:09 30.23661 108.97637 36497 ft 516 kts 71°
2026-04-27 12:09 30.24643 109.01636 36659 ft 518 kts 72°
2026-04-27 12:09 30.25593 109.05647 36925 ft 517 kts 72°
2026-04-27 12:10 30.26543 109.09676 37031 ft 519 kts 72°
2026-04-27 12:10 30.28465 109.17711 37052 ft 516 kts 72°
2026-04-27 12:11 30.30405 109.25689 37057 ft 514 kts 71°
2026-04-27 12:11 30.32355 109.33654 37062 ft 515 kts 72°
2026-04-27 12:12 30.34281 109.41575 37051 ft 515 kts 72°
2026-04-27 12:12 30.36221 109.49546 37053 ft 515 kts 72°
2026-04-27 12:13 30.38145 109.57518 37056 ft 512 kts 72°
2026-04-27 12:13 30.39639 109.65606 37054 ft 514 kts 78°
2026-04-27 12:14 30.40865 109.73771 37057 ft 514 kts 78°
2026-04-27 12:14 30.42051 109.81936 37067 ft 514 kts 78°
2026-04-27 12:15 30.43229 109.90080 37073 ft 511 kts 78°
2026-04-27 12:15 30.44406 109.98209 37078 ft 511 kts 78°
2026-04-27 12:16 30.45589 110.06342 37076 ft 512 kts 78°
2026-04-27 12:16 30.46758 110.14427 37081 ft 512 kts 79°
2026-04-27 12:17 30.47927 110.22565 37089 ft 512 kts 79°
2026-04-27 12:17 30.49092 110.30702 37083 ft 511 kts 79°
2026-04-27 12:18 30.50251 110.38846 37086 ft 512 kts 79°
2026-04-27 12:18 30.51402 110.46996 37095 ft 512 kts 79°
2026-04-27 12:19 30.52551 110.55150 37094 ft 511 kts 79°
2026-04-27 12:19 30.53695 110.63297 37097 ft 512 kts 79°
2026-04-27 12:20 30.54833 110.71440 37096 ft 512 kts 79°
2026-04-27 12:20 30.55967 110.79599 37092 ft 512 kts 79°
2026-04-27 12:21 30.57084 110.87697 37081 ft 512 kts 79°
2026-04-27 12:21 30.58208 110.95844 37082 ft 512 kts 79°
2026-04-27 12:22 30.59324 111.03993 37091 ft 512 kts 79°
2026-04-27 12:22 30.60434 111.12166 37079 ft 513 kts 79°
2026-04-27 12:23 30.61548 111.20351 37078 ft 513 kts 80°
2026-04-27 12:23 30.62658 111.28536 37071 ft 513 kts 80°
2026-04-27 12:24 30.63758 111.36723 37073 ft 513 kts 80°
2026-04-27 12:24 30.64852 111.44918 37070 ft 513 kts 80°
2026-04-27 12:25 30.65509 111.53113 37067 ft 513 kts 85°
2026-04-27 12:25 30.65958 111.61391 37075 ft 514 kts 86°
2026-04-27 12:26 30.66372 111.69683 37077 ft 514 kts 86°
2026-04-27 12:26 30.66788 111.77959 37074 ft 514 kts 86°
2026-04-27 12:27 30.67202 111.86230 37070 ft 513 kts 86°
2026-04-27 12:27 30.67614 111.94519 37071 ft 513 kts 86°
2026-04-27 12:28 30.68086 112.02799 37094 ft 513 kts 85°
2026-04-27 12:28 30.68680 112.11068 37070 ft 514 kts 84°
2026-04-27 12:29 30.69270 112.19302 37072 ft 515 kts 85°
2026-04-27 12:29 30.69838 112.27601 37066 ft 515 kts 85°
2026-04-27 12:30 30.70390 112.35902 37068 ft 515 kts 85°
2026-04-27 12:30 30.70937 112.44204 37067 ft 515 kts 85°
2026-04-27 12:31 30.71479 112.52512 37066 ft 516 kts 85°
2026-04-27 12:31 30.72016 112.60822 37061 ft 516 kts 85°
2026-04-27 12:32 30.72549 112.69144 37065 ft 516 kts 85°
2026-04-27 12:32 30.73077 112.77483 37056 ft 516 kts 85°
2026-04-27 12:33 30.73599 112.85805 37058 ft 516 kts 85°
2026-04-27 12:33 30.74112 112.94065 37057 ft 516 kts 85°
2026-04-27 12:34 30.74623 113.02381 37060 ft 516 kts 85°
2026-04-27 12:34 30.75129 113.10702 37054 ft 516 kts 85°
2026-04-27 12:35 30.75579 113.19038 37056 ft 516 kts 88°
2026-04-27 12:35 30.75772 113.27382 37051 ft 516 kts 89°
2026-04-27 12:36 30.75923 113.35733 37060 ft 516 kts 88°
2026-04-27 12:36 30.76106 113.44083 37045 ft 516 kts 88°
2026-04-27 12:37 30.76305 113.52370 37053 ft 516 kts 88°
2026-04-27 12:37 30.76505 113.60698 37056 ft 516 kts 88°
2026-04-27 12:38 30.76698 113.69034 37047 ft 516 kts 88°
2026-04-27 12:38 30.76885 113.77365 37041 ft 516 kts 88°
2026-04-27 12:39 30.77066 113.85715 37054 ft 516 kts 88°
2026-04-27 12:39 30.77242 113.94056 37051 ft 516 kts 88°
2026-04-27 12:40 30.77413 114.02398 37062 ft 516 kts 88°
2026-04-27 12:40 30.77710 114.10738 37070 ft 516 kts 86°
2026-04-27 12:41 30.78282 114.19050 37072 ft 515 kts 78°
2026-04-27 12:41 30.80352 114.26973 37064 ft 512 kts 68°
2026-04-27 12:42 30.82860 114.34674 37062 ft 513 kts 66°
2026-04-27 12:42 30.85397 114.42446 37036 ft 513 kts 66°
2026-04-27 12:43 30.87908 114.50204 37035 ft 512 kts 66°
2026-04-27 12:43 30.90431 114.57970 37030 ft 512 kts 66°
2026-04-27 12:44 30.92907 114.65601 37035 ft 512 kts 67°
2026-04-27 12:44 30.95423 114.73380 37049 ft 513 kts 66°
2026-04-27 12:45 30.97936 114.81170 37041 ft 514 kts 67°
2026-04-27 12:45 31.00452 114.88994 37042 ft 515 kts 67°
2026-04-27 12:46 31.02944 114.96770 37037 ft 515 kts 67°
2026-04-27 12:46 31.05446 115.04592 37050 ft 514 kts 66°
2026-04-27 12:47 31.07938 115.12393 37050 ft 513 kts 66°
2026-04-27 12:47 31.10423 115.20190 37075 ft 513 kts 66°
2026-04-27 12:48 31.12903 115.27990 37055 ft 512 kts 66°
2026-04-27 12:48 31.15393 115.35799 37057 ft 513 kts 66°
2026-04-27 12:49 31.17907 115.43533 37063 ft 512 kts 66°
2026-04-27 12:49 31.20430 115.51307 37063 ft 512 kts 66°
2026-04-27 12:50 31.22941 115.59091 37075 ft 512 kts 66°
2026-04-27 12:50 31.25446 115.66893 37086 ft 512 kts 65°
2026-04-27 12:51 31.27944 115.74689 37075 ft 511 kts 65°
2026-04-27 12:51 31.30431 115.82473 37088 ft 512 kts 65°
2026-04-27 12:52 31.32919 115.90276 37087 ft 511 kts 65°
2026-04-27 12:52 31.35434 115.97995 37093 ft 511 kts 65°
2026-04-27 12:53 31.39238 116.09621 37086 ft 509 kts 65°
2026-04-27 12:53 31.41761 116.17391 37095 ft 511 kts 65°
2026-04-27 12:54 31.44288 116.25192 37090 ft 513 kts 65°
2026-04-27 12:54 31.46384 116.31682 37088 ft 512 kts 65°
2026-04-27 12:55 31.48897 116.39484 37085 ft 512 kts 65°
2026-04-27 12:55 31.51813 116.48558 37085 ft 512 kts 65°
2026-04-27 12:56 31.54315 116.56366 37085 ft 512 kts 65°
2026-04-27 12:56 31.56396 116.62871 37089 ft 512 kts 65°
2026-04-27 12:57 31.58899 116.70711 37085 ft 514 kts 65°
2026-04-27 12:57 31.61380 116.78505 37085 ft 514 kts 65°
2026-04-27 12:58 31.63878 116.86369 37082 ft 515 kts 65°
2026-04-27 12:58 31.66368 116.94236 37084 ft 513 kts 65°
2026-04-27 12:59 31.68846 117.02083 37085 ft 512 kts 65°
2026-04-27 12:59 31.71284 117.09950 37088 ft 514 kts 65°
2026-04-27 13:00 31.73723 117.17860 37077 ft 516 kts 65°
2026-04-27 13:00 31.76126 117.25794 37073 ft 516 kts 69°
2026-04-27 13:01 31.77142 117.34182 37075 ft 524 kts 89°
2026-04-27 13:01 31.76747 117.42747 37065 ft 526 kts 92°
2026-04-27 13:02 31.76118 117.51264 37061 ft 526 kts 93°
2026-04-27 13:02 31.75473 117.59806 37059 ft 524 kts 92°
2026-04-27 13:03 31.74856 117.68337 37059 ft 524 kts 92°
2026-04-27 13:03 31.74249 117.76876 37060 ft 524 kts 92°
2026-04-27 13:04 31.73639 117.85413 37054 ft 524 kts 92°
2026-04-27 13:04 31.73021 117.93949 37053 ft 524 kts 92°
2026-04-27 13:05 31.72397 118.02490 37051 ft 526 kts 92°
2026-04-27 13:05 31.71763 118.11078 36890 ft 528 kts 92°
2026-04-27 13:06 31.71455 118.15378 36638 ft 527 kts 92°
2026-04-27 13:06 31.71157 118.19667 36375 ft 527 kts 92°
2026-04-27 13:06 31.70865 118.23957 36124 ft 528 kts 92°
2026-04-27 13:06 31.70570 118.28263 35871 ft 528 kts 92°
2026-04-27 13:07 31.70270 118.32567 35631 ft 529 kts 92°
2026-04-27 13:07 31.69970 118.36829 35383 ft 529 kts 93°
2026-04-27 13:07 31.69659 118.41192 35136 ft 529 kts 93°
2026-04-27 13:07 31.69356 118.45439 34897 ft 529 kts 93°
2026-04-27 13:08 31.69047 118.49738 34658 ft 529 kts 93°
2026-04-27 13:08 31.68736 118.54053 34427 ft 530 kts 94°
2026-04-27 13:08 31.68424 118.58368 34191 ft 530 kts 94°
2026-04-27 13:08 31.68110 118.62681 33966 ft 531 kts 94°
2026-04-27 13:09 31.67795 118.66997 33693 ft 531 kts 94°
2026-04-27 13:09 31.67477 118.71321 33429 ft 532 kts 94°
2026-04-27 13:09 31.67157 118.75656 33176 ft 534 kts 94°
2026-04-27 13:09 31.66835 118.80005 32920 ft 535 kts 95°
2026-04-27 13:10 31.66512 118.84346 32665 ft 536 kts 95°
2026-04-27 13:10 31.66173 118.88709 32406 ft 536 kts 97°
2026-04-27 13:10 31.65463 118.93003 32135 ft 536 kts 107°
2026-04-27 13:10 31.64164 118.97072 31472 ft 532 kts 120°
2026-04-27 13:11 31.62219 119.00710 30895 ft 522 kts 133°
2026-04-27 13:11 31.59761 119.03763 30373 ft 509 kts 145°
2026-04-27 13:11 31.57041 119.06379 29802 ft 504 kts 148°
2026-04-27 13:11 31.54258 119.08868 29221 ft 499 kts 149°
2026-04-27 13:12 31.51480 119.11270 28693 ft 493 kts 150°
2026-04-27 13:12 31.48720 119.13633 28177 ft 489 kts 150°
2026-04-27 13:12 31.45985 119.15977 27650 ft 485 kts 150°
2026-04-27 13:12 31.43283 119.18303 27127 ft 481 kts 149°
2026-04-27 13:13 31.40602 119.20623 26601 ft 476 kts 149°
2026-04-27 13:13 31.37951 119.22927 26080 ft 473 kts 149°
2026-04-27 13:13 31.35326 119.25212 25556 ft 469 kts 148°
2026-04-27 13:13 31.32720 119.27483 25036 ft 465 kts 148°
2026-04-27 13:14 31.30167 119.29707 24536 ft 462 kts 148°
2026-04-27 13:14 31.27594 119.31946 24006 ft 459 kts 148°
2026-04-27 13:14 31.25007 119.34196 23469 ft 457 kts 148°
2026-04-27 13:14 31.22490 119.36383 22894 ft 453 kts 148°
2026-04-27 13:15 31.19974 119.38569 22370 ft 449 kts 148°
2026-04-27 13:15 31.17481 119.40745 21859 ft 445 kts 148°
2026-04-27 13:15 31.15015 119.42905 21324 ft 441 kts 148°
2026-04-27 13:15 31.12569 119.45048 20801 ft 439 kts 148°
2026-04-27 13:16 31.10133 119.47180 20255 ft 436 kts 147°
2026-04-27 13:16 31.07716 119.49294 19738 ft 433 kts 147°
2026-04-27 13:16 31.05310 119.51397 19226 ft 430 kts 147°
2026-04-27 13:16 31.02924 119.53482 18726 ft 428 kts 147°
2026-04-27 13:17 31.00551 119.55553 18222 ft 425 kts 147°
2026-04-27 13:17 30.98191 119.57612 17652 ft 422 kts 147°
2026-04-27 13:17 30.95845 119.59657 17090 ft 419 kts 147°
2026-04-27 13:17 30.93520 119.61683 16533 ft 416 kts 147°
2026-04-27 13:18 30.91211 119.63694 15983 ft 413 kts 147°
2026-04-27 13:18 30.88924 119.65685 15447 ft 409 kts 147°
2026-04-27 13:18 30.86660 119.67654 14927 ft 405 kts 148°
2026-04-27 13:18 30.84405 119.69615 14407 ft 401 kts 148°
2026-04-27 13:19 30.82211 119.71521 13894 ft 397 kts 148°
2026-04-27 13:19 30.80006 119.73435 13339 ft 393 kts 147°
2026-04-27 13:19 30.77822 119.75329 12763 ft 389 kts 147°
2026-04-27 13:19 30.75668 119.77196 12213 ft 385 kts 147°
2026-04-27 13:20 30.73528 119.79050 11670 ft 381 kts 147°
2026-04-27 13:20 30.71421 119.80876 11310 ft 373 kts 146°
2026-04-27 13:20 30.69397 119.82677 11078 ft 361 kts 145°
2026-04-27 13:20 30.67453 119.84440 10967 ft 347 kts 145°
2026-04-27 13:21 30.65586 119.86127 10874 ft 334 kts 145°
2026-04-27 13:21 30.63734 119.87664 10765 ft 320 kts 152°
2026-04-27 13:21 30.61834 119.88929 10651 ft 309 kts 154°
2026-04-27 13:21 30.59983 119.90102 10540 ft 299 kts 154°
2026-04-27 13:22 30.58179 119.91241 10422 ft 291 kts 154°
2026-04-27 13:22 30.56407 119.92361 10173 ft 289 kts 154°
2026-04-27 13:22 30.54645 119.93473 9884 ft 288 kts 154°
2026-04-27 13:22 30.52892 119.94582 9556 ft 286 kts 154°
2026-04-27 13:23 30.51146 119.95687 9204 ft 286 kts 153°
2026-04-27 13:23 30.49401 119.96791 8871 ft 285 kts 153°
2026-04-27 13:23 30.47685 119.97877 8558 ft 284 kts 152°
2026-04-27 13:23 30.45958 119.98971 8229 ft 283 kts 152°
2026-04-27 13:24 30.44232 120.00064 7915 ft 281 kts 152°
2026-04-27 13:24 30.42503 120.01163 7766 ft 280 kts 152°
2026-04-27 13:24 30.40811 120.02235 7712 ft 278 kts 152°
2026-04-27 13:24 30.39122 120.03302 7662 ft 278 kts 152°
2026-04-27 13:25 30.37419 120.04379 7602 ft 278 kts 152°
2026-04-27 13:25 30.35725 120.05450 7533 ft 278 kts 152°
2026-04-27 13:25 30.34021 120.06527 7484 ft 280 kts 152°
2026-04-27 13:25 30.32314 120.07605 7404 ft 277 kts 152°
2026-04-27 13:26 30.30637 120.08666 7292 ft 276 kts 152°
2026-04-27 13:26 30.28940 120.09736 7096 ft 276 kts 151°
2026-04-27 13:26 30.27291 120.10778 6805 ft 265 kts 151°
2026-04-27 13:26 30.25675 120.11797 6528 ft 265 kts 151°
2026-04-27 13:27 30.24047 120.12815 6162 ft 266 kts 153°
2026-04-27 13:27 30.22297 120.13465 5673 ft 266 kts 175°
2026-04-27 13:27 30.20484 120.13132 5187 ft 265 kts 205°
2026-04-27 13:27 30.19073 120.11836 4805 ft 264 kts 234°
2026-04-27 13:28 30.18117 120.10013 4554 ft 269 kts 241°
2026-04-27 13:28 30.16884 120.08393 4305 ft 271 kts 212°
2026-04-27 13:28 30.15127 120.07795 4059 ft 264 kts 177°
2026-04-27 13:28 30.13425 120.08371 3832 ft 255 kts 150°
2026-04-27 13:29 30.11886 120.09385 3583 ft 252 kts 147°
2026-04-27 13:29 30.10539 120.10617 3330 ft 244 kts 122°
2026-04-27 13:29 30.10008 120.12399 3108 ft 234 kts 90°
2026-04-27 13:29 30.10206 120.14210 3010 ft 222 kts 72°
2026-04-27 13:30 30.10753 120.15825 3001 ft 212 kts 62°
2026-04-27 13:30 30.11406 120.17315 3010 ft 200 kts 61°
2026-04-27 13:30 30.12011 120.18671 3028 ft 184 kts 60°
2026-04-27 13:30 30.12596 120.19987 3009 ft 184 kts 61°
2026-04-27 13:31 30.13177 120.21304 3006 ft 185 kts 61°
2026-04-27 13:31 30.13756 120.22623 3007 ft 183 kts 61°
2026-04-27 13:31 30.14332 120.23937 3006 ft 183 kts 62°
2026-04-27 13:31 30.14908 120.25247 2995 ft 180 kts 61°
2026-04-27 13:32 30.15459 120.26493 2856 ft 167 kts 60°
2026-04-27 13:32 30.15964 120.27632 2667 ft 152 kts 60°
2026-04-27 13:32 30.16428 120.28679 2444 ft 142 kts 60°
2026-04-27 13:32 30.16871 120.29681 2277 ft 139 kts 60°
2026-04-27 13:33 30.17309 120.30670 2085 ft 141 kts 60°
2026-04-27 13:33 30.17754 120.31676 1916 ft 140 kts 60°
2026-04-27 13:33 30.18198 120.32679 1727 ft 140 kts 61°
2026-04-27 13:33 30.18643 120.33686 1558 ft 141 kts 61°
2026-04-27 13:34 30.19087 120.34690 1359 ft 140 kts 61°
2026-04-27 13:34 30.19532 120.35697 1181 ft 141 kts 62°
2026-04-27 13:34 30.19974 120.36698 998 ft 140 kts 61°
2026-04-27 13:34 30.20419 120.37704 814 ft 140 kts 62°
2026-04-27 13:35 30.20864 120.38709 654 ft 141 kts 62°
2026-04-27 13:35 30.21316 120.39716 459 ft 142 kts 62°
2026-04-27 13:35 30.21764 120.40732 273 ft 142 kts 63°
2026-04-27 13:35 30.22205 120.41749 86 ft 143 kts 61°
2026-04-27 13:36 30.22646 120.42742 36 ft 123 kts 63°
2026-04-27 13:36 30.22977 120.43496 39 ft 91 kts 64°
2026-04-27 13:36 30.23174 120.43936 35 ft 32 kts 60°
2026-04-27 13:36 30.23199 120.43986 35 ft 2 kts 61°
2026-04-27 13:37 30.23211 120.44004 35 ft 4 kts 45°
2026-04-27 13:37 30.23241 120.44029 35 ft 6 kts 34°
2026-04-27 13:37 30.23284 120.44062 35 ft 8 kts 34°
2026-04-27 13:37 30.23335 120.44103 36 ft 10 kts 34°
2026-04-27 13:38 30.23400 120.44133 36 ft 10 kts 351°
2026-04-27 13:38 30.23422 120.44117 38 ft 0 kts 323°
2026-04-27 13:40 30.23432 120.44108 36 ft 3 kts 323°
2026-04-27 13:41 30.23443 120.44095 36 ft 3 kts 322°
2026-04-27 13:41 30.23466 120.44077 36 ft 5 kts 326°
2026-04-27 13:41 30.23489 120.44057 36 ft 7 kts 320°
2026-04-27 13:41 30.23486 120.44003 36 ft 6 kts 241°
2026-04-27 13:42 30.23482 120.43976 36 ft 4 kts 275°
2026-04-27 13:42 30.23514 120.43941 36 ft 6 kts 333°
2026-04-27 13:42 30.23541 120.43926 36 ft 7 kts 333°
2026-04-27 13:42 30.23594 120.43894 36 ft 10 kts 333°
2026-04-27 13:43 30.23661 120.43854 36 ft 12 kts 333°
2026-04-27 13:43 30.23741 120.43809 36 ft 14 kts 334°
2026-04-27 13:43 30.23833 120.43756 36 ft 16 kts 333°
2026-04-27 13:43 30.23935 120.43697 36 ft 17 kts 334°
2026-04-27 13:44 30.24045 120.43631 36 ft 19 kts 332°
2026-04-27 13:44 30.24163 120.43561 34 ft 19 kts 333°
2026-04-27 13:44 30.24284 120.43492 36 ft 18 kts 333°
2026-04-27 13:44 30.24399 120.43424 36 ft 19 kts 332°
2026-04-27 13:45 30.24484 120.43372 36 ft 0 kts 333°
2026-04-27 13:45 30.24493 120.43367 36 ft 3 kts 333°
2026-04-27 13:45 30.24525 120.43348 36 ft 7 kts 333°
2026-04-27 13:45 30.24540 120.43315 36 ft 2 kts 253°
2026-04-27 13:46 30.24528 120.43291 36 ft 5 kts 242°
2026-04-27 13:46 30.24504 120.43241 36 ft 9 kts 243°
2026-04-27 13:46 30.24473 120.43167 36 ft 12 kts 244°
2026-04-27 13:46 30.24432 120.43072 36 ft 15 kts 244°
2026-04-27 13:47 30.24382 120.42958 36 ft 17 kts 243°
2026-04-27 13:47 30.24323 120.42828 35 ft 19 kts 239°
2026-04-27 13:47 30.24254 120.42683 36 ft 21 kts 243°
2026-04-27 13:47 30.24215 120.42603 36 ft 8 kts 231°
2026-04-27 13:48 30.24166 120.42596 36 ft 8 kts 157°
2026-04-27 13:48 30.24131 120.42627 36 ft 0 kts 142°
2026-04-27 13:48 30.24128 120.42630 36 ft 0 kts 142°
2026-04-27 13:48 30.24122 120.42635 36 ft 2 kts 143°
2026-04-27 13:49 30.24118 120.42639 36 ft 0 kts 143°